sat.trackr.live / text

‹ back to catalog

BEIDOU-3 M24 (C46)

NORAD 44542 · 2019-061A

PAYLOAD ACTIVE UNKNOWN

§ Identity

Operator
Country
PRC
Launch date
2019-09-22
Launch site
XICLF
Launch vehicle
Mass (kg)
RCS (m²)

Purposes: earth_obs, nav

External: N2YO · Heavens-Above · Gunter

§ Orbital elements

Epoch: 2026-05-24T01:54:31.218336Z

Period
773.24 min
Inclination
54.3948°
Eccentricity
0.0008197
Mean motion
1.86229030 rev/d
Perigee alt
21,505.4 km
Apogee alt
21,551.1 km
Semi-major
27,906.4 km
B*
0.0000e+0
RAAN
183.5409°
Arg perigee
0.7769°
Mean anomaly
359.2907°
Rev number
4,534

§ Raw data

BEIDOU-3 M24 (C46)1 44542U 19061A   26144.07952799  .00000048  00000+0  00000+0 0  99912 44542  54.3948 183.5409 0008197   0.7769 359.2907  1.86229030 45340

JSON: /api/v1/satellites/44542 · /tle

For live sub-satellite position, see the globe view (requires WebGL).

§ Visibility from observer

Set your observer location to see the next 7 days of passes ≥ 10°. The values pass through the URL so the page stays shareable.

No JS? Fill the form by hand. The geolocation button needs JavaScript.